SL-8 DEB, 1591

Orbit data source: Space-Track

SL-8 DEB, 1591 is space debris in LEO originally from a launch on Sat, 18 Sep 1965 UTC launched from the Tyuratam Missile And Space Complex (TTMTR). Debris objects in space refer to the collection of defunct objects orbiting the Earth. Examples of debris include non-operational satellites, rocket bodies, and fragments generated from explosions, collisions, or faulty payload assembly.

Loading next visibility...
Identifier
1591, 1965-073H
Orbit
LEO
Country
Flag of CISCIS
Related business
Manufacturer
Unknown
Mission
Spacecraft
Bus & Motor
Unknown
Mass
Unknown
Launch date (UTC)
1965-09-18 (61 years ago)
Launch vehicle
Unknown
Launch site
Tyuratam Missile And Space Complex (TTMTR)
Object type
Payload
Rocket body
Debris
Shape & HBR
Unknown shape, 0.1 m
Radar Cross Section
Small (<0.1 m²)

Expand to show TLE details & history
Last TLE update: 10 hours ago

TLE from 10 hours ago
0 SL-8 DEB
1  1591U 65073H   26119.61600719  .00000109  00000-0  13926-2 0  9999
2  1591  56.0590 278.2639 0151725 263.4262 173.4116 12.43058188742686
Epoch: 2026-04-29T14:47Z
TLE epoch observation values (Epoch: 2026-04-29T14:47:03.021Z)
Latitude
54.07261°
Longitude
-93.50626°
Altitude
1,619.505 km
Speed
7.013 km/s
True Right ascension
23h 03m 19s
True Declination
53° 55' 36"
Sunlit
Object was in daylight at epoch
Visualization orbit readout
Latitude
Unknown
Longitude
Unknown
Altitude
Unknown
Speed
Unknown
Apparent Right ascension
Unknown
Apparent Declination
Unknown
Sunlit
N/A
Visualization observer readout
Local Sidereal Time
08:36:29
Azimuth
Unknown
Elevation
Unknown
Doppler factor
Unknown
Orbital elements
Apogee altitude
1,612.922 km
Perigee altitude
1,374.057 km
Semi-major axis
7,871.626 km
Eccentricity
0.01517
Inclination
56.059°
RAAN
278.2639°
Arg. of periapsis
263.4262°
True anomaly
173.60739°
Mean anomaly
173.4116°
Eccentric anomaly
173.50986°
Mean motion
3.10775 °/min
Orbital period
115.84 mins
BSTAR
0.0013926
Loading maneuver chart data...
Computing Atmospheric mass density...
Loading historical data...
Loading historical data...
Loading historical data...
Loading historical data...
Loading historical data...
Loading historical data...
Loading historical data...

Documentation

Showing up to 5 results
|